sat.trackr.live / text

‹ back to catalog

STARLINK-5407

NORAD 54858 · 2022-177AQ

PAYLOAD ACTIVE UNKNOWN

§ Identity

Operator
Country
US
Launch date
2022-12-28
Launch site
AFETR
Launch vehicle
Mass (kg)
RCS (m²)

Purposes: comms

External: N2YO · Heavens-Above · Gunter

§ Orbital elements

Epoch: 2026-09-19T07:19:08.533632Z

Period
94.27 min
Inclination
43.0042°
Eccentricity
0.0001839
Mean motion
15.27479198 rev/d
Perigee alt
482.1 km
Apogee alt
484.6 km
Semi-major
6,861.5 km
B*
6.9124e-4
RAAN
107.9624°
Arg perigee
218.1495°
Mean anomaly
141.9227°
Rev number
20,670

§ Raw data

STARLINK-54071 54858U 22177AQ  26262.30495988  .00018750  00000+0  69124-3 0  99982 54858  43.0042 107.9624 0001839 218.1495 141.9227 15.27479198206709

JSON: /api/v1/satellites/54858 · /tle

For live sub-satellite position, see the globe view (requires WebGL).

§ Visibility from observer

Set your observer location to see the next 7 days of passes ≥ 10°. The values pass through the URL so the page stays shareable.

No JS? Fill the form by hand. The geolocation button needs JavaScript.